QPF
0.03 0.02 0.03 0.04 0.05 0.04 0.03 0.02 0.02 0.01 0.01 0.01 0.01 0.01 0.01 0.01 0.00 0.00 0.00 0.00 0.00 0.01 0.01 0.01 0.02 0.02 0.01 0.01 0.01 0.00 0.00 0.01 0.01 0.01 0.01 0.01 0.01 0.01 0.01 0.01 0.01 0.02 0.02
0.04 0.03 0.03 0.03 0.05 0.06 0.05 0.03 0.02 0.02 0.02 0.02 0.01 0.01 0.01 0.01 0.01 0.00 0.00 0.00 0.00 0.00 0.01 0.01 0.02 0.03 0.02 0.01 0.01 0.01 0.00 0.00 0.01 0.01 0.01 0.01 0.00 0.00 0.00 0.00 0.01 0.01 0.03
0.07 0.07 0.05 0.05 0.07 0.10 0.09 0.07 0.04 0.03 0.03 0.03 0.02 0.01 0.01 0.01 0.01 0.00 0.00 0.00 0.00 0.00 0.01 0.01 0.02 0.02 0.01 0.01 0.01 0.00 0.00 0.00 0.00 0.00 0.00 0.00 0.00 0.00 0.00 0.00 0.00 0.01 0.01
0.07 0.09 0.11 0.10 0.09 0.11 0.13 0.13 0.11 0.07 0.04 0.03 0.03 0.02 0.01 0.01 0.01 0.01 0.01 0.00 0.00 0.00 0.00 0.00 0.01 0.02 0.01 0.00 0.00 0.00 0.00 0.00 0.00 0.00 0.00 0.00 0.00 0.00 0.00 0.00 0.00 0.00 0.01
0.07 0.08 0.13 0.15 0.15 0.13 0.12 0.13 0.14 0.11 0.07 0.04 0.04 0.03 0.03 0.02 0.02 0.01 0.01 0.00 0.00 0.00 0.00 0.00 0.00 0.01 0.01 0.00 0.00 0.00 0.00 0.00 0.00 0.00 0.00 0.00 0.00 0.00 0.00 0.00 0.00 0.00 0.01
0.04 0.06 0.08 0.12 0.14 0.13 0.13 0.12 0.11 0.12 0.11 0.08 0.05 0.03 0.03 0.03 0.03 0.02 0.01 0.00 0.00 0.00 0.00 0.00 0.00 0.00 0.00 0.00 0.00 0.00 0.01 0.00 0.00 0.00 0.00 0.00 0.00 0.00 0.00 0.00 0.00 0.00 0.01
0.01 0.02 0.03 0.05 0.06 0.07 0.09 0.11 0.11 0.11 0.14 0.12 0.08 0.05 0.03 0.02 0.04 0.04 0.03 0.01 0.01 0.01 0.00 0.00 0.00 0.00 0.00 0.00 0.00 0.00 0.01 0.00 0.00 0.00 0.00 0.00 0.00 0.00 0.01 0.00 0.00 0.00 0.00
0.01 0.01 0.01 0.01 0.02 0.03 0.05 0.08 0.10 0.10 0.12 0.14 0.12 0.08 0.06 0.04 0.03 0.04 0.04 0.02 0.01 0.01 0.01 0.00 0.00 0.00 0.00 0.00 0.00 0.00 0.00 0.00 0.00 0.00 0.00 0.00 0.00 0.00 0.00 0.00 0.00 0.00 0.00
0.01 0.01 0.01 0.01 0.01 0.02 0.03 0.04 0.07 0.10 0.11 0.12 0.13 0.10 0.07 0.06 0.04 0.03 0.04 0.04 0.02 0.01 0.01 0.01 0.00 0.00 0.00 0.00 0.00 0.00 0.00 0.00 0.00 0.00 0.00 0.00 0.00 0.00 0.00 0.00 0.00 0.00 0.01
0.01 0.01 0.01 0.01 0.01 0.02 0.03 0.03 0.04 0.07 0.09 0.11 0.12 0.11 0.08 0.05 0.04 0.04 0.04 0.04 0.03 0.02 0.01 0.01 0.00 0.00 0.00 0.00 0.00 0.00 0.00 0.00 0.00 0.00 0.00 0.00 0.00 0.00 0.00 0.00 0.00 0.00 0.00
0.02 0.01 0.01 0.01 0.01 0.01 0.02 0.03 0.05 0.06 0.08 0.08 0.09 0.10 0.09 0.08 0.06 0.05 0.05 0.05 0.05 0.03 0.02 0.01 0.01 0.00 0.00 0.00 0.00 0.00 0.00 0.00 0.00 0.00 0.00 0.00 0.00 0.00 0.00 0.00 0.00 0.00 0.00
0.03 0.02 0.02 0.02 0.02 0.02 0.02 0.02 0.04 0.06 0.08 0.08 0.08 0.08 0.09 0.09 0.08 0.06 0.05 0.06 0.06 0.05 0.03 0.02 0.01 0.01 0.00 0.00 0.00 0.00 0.00 0.00 0.00 0.00 0.00 0.00 0.00 0.00 0.00 0.00 0.00 0.00 0.00
0.03 0.03 0.03 0.02 0.02 0.02 0.02 0.03 0.04 0.06 0.07 0.08 0.08 0.07 0.08 0.08 0.08 0.06 0.05 0.06 0.06 0.05 0.05 0.03 0.02 0.01 0.00 0.00 0.00 0.01 0.00 0.00 0.00 0.00 0.00 0.00 0.00 0.00 0.00 0.00 0.00 0.00 0.00
0.03 0.03 0.03 0.02 0.02 0.01 0.02 0.03 0.04 0.05 0.07 0.08 0.08 0.08 0.07 0.07 0.07 0.07 0.05 0.04 0.05 0.04 0.04 0.03 0.03 0.02 0.01 0.01 0.01 0.01 0.00 0.00 0.00 0.00 0.00 0.00 0.00 0.00 0.00 0.00 0.00 0.00 0.00
0.04 0.03 0.02 0.02 0.02 0.02 0.02 0.03 0.03 0.03 0.04 0.05 0.06 0.06 0.05 0.05 0.05 0.05 0.04 0.03 0.03 0.03 0.02 0.02 0.02 0.02 0.02 0.01 0.01 0.01 0.00 0.01 0.00 0.00 0.00 0.00 0.00 0.00 0.00 0.00 0.00 0.00 0.00
0.04 0.03 0.03 0.02 0.02 0.02 0.01 0.02 0.03 0.03 0.03 0.03 0.04 0.04 0.04 0.04 0.04 0.04 0.03 0.02 0.02 0.01 0.01 0.01 0.01 0.01 0.02 0.02 0.02 0.01 0.01 0.01 0.00 0.00 0.00 0.00 0.00 0.00 0.00 0.00 0.00 0.00 0.00
0.05 0.04 0.04 0.03 0.03 0.03 0.02 0.01 0.02 0.03 0.03 0.03 0.03 0.02 0.02 0.03 0.03 0.04 0.03 0.02 0.01 0.01 0.01 0.01 0.01 0.01 0.01 0.02 0.02 0.01 0.01 0.01 0.00 0.00 0.00 0.00 0.00 0.00 0.00 0.00 0.00 0.00 0.00
0.05 0.04 0.04 0.03 0.02 0.02 0.02 0.01 0.01 0.01 0.03 0.03 0.03 0.02 0.02 0.02 0.03 0.03 0.04 0.03 0.02 0.01 0.01 0.01 0.01 0.01 0.02 0.02 0.02 0.02 0.01 0.01 0.00 0.00 0.00 0.00 0.00 0.00 0.00 0.00 0.00 0.00 0.00
0.04 0.04 0.03 0.03 0.02 0.02 0.01 0.01 0.01 0.01 0.02 0.03 0.03 0.03 0.02 0.02 0.02 0.03 0.04 0.04 0.03 0.02 0.01 0.01 0.02 0.02 0.02 0.03 0.03 0.03 0.02 0.01 0.01 0.01 0.01 0.01 0.00 0.00 0.00 0.00 0.00 0.00 0.00
0.05 0.04 0.04 0.03 0.03 0.02 0.02 0.02 0.02 0.02 0.02 0.02 0.03 0.03 0.02 0.01 0.01 0.02 0.03 0.03 0.03 0.01 0.01 0.01 0.01 0.01 0.02 0.02 0.03 0.03 0.03 0.02 0.02 0.01 0.01 0.01 0.01 0.00 0.00 0.00 0.00 0.00 0.00
0.05 0.04 0.04 0.03 0.02 0.02 0.01 0.01 0.01 0.02 0.03 0.03 0.03 0.03 0.03 0.03 0.02 0.01 0.02 0.02 0.02 0.02 0.01 0.01 0.01 0.01 0.01 0.01 0.01 0.01 0.02 0.03 0.02 0.02 0.01 0.01 0.01 0.01 0.00 0.00 0.00 0.00 0.00
0.03 0.03 0.02 0.02 0.02 0.02 0.02 0.02 0.01 0.01 0.01 0.02 0.03 0.03 0.03 0.03 0.03 0.02 0.02 0.02 0.02 0.01 0.01 0.01 0.01 0.01 0.01 0.01 0.01 0.01 0.01 0.01 0.01 0.01 0.01 0.01 0.01 0.01 0.01 0.00 0.00 0.00 0.00
0.01 0.01 0.01 0.01 0.01 0.01 0.02 0.02 0.01 0.01 0.01 0.01 0.02 0.03 0.03 0.03 0.03 0.02 0.02 0.02 0.02 0.01 0.01 0.01 0.01 0.01 0.01 0.01 0.01 0.01 0.01 0.01 0.00 0.01 0.01 0.01 0.01 0.01 0.01 0.01 0.01 0.00 0.00
0.00 0.00 0.00 0.01 0.01 0.01 0.02 0.02 0.01 0.01 0.02 0.01 0.02 0.02 0.03 0.03 0.02 0.02 0.02 0.01 0.02 0.01 0.01 0.01 0.01 0.01 0.01 0.01 0.01 0.01 0.01 0.01 0.01 0.01 0.01 0.01 0.01 0.01 0.01 0.01 0.01 0.01 0.01
0.01 0.00 0.00 0.00 0.01 0.01 0.01 0.02 0.02 0.01 0.01 0.02 0.02 0.02 0.02 0.02 0.03 0.02 0.02 0.02 0.01 0.01 0.01 0.01 0.01 0.01 0.01 0.01 0.01 0.01 0.02 0.02 0.01 0.01 0.01 0.01 0.01 0.01 0.01 0.01 0.01 0.01 0.01
0.01 0.01 0.01 0.01 0.01 0.01 0.01 0.01 0.02 0.01 0.01 0.01 0.02 0.02 0.02 0.02 0.02 0.02 0.01 0.01 0.01 0.01 0.01 0.01 0.01 0.01 0.01 0.01 0.01 0.01 0.01 0.01 0.01 0.01 0.00 0.01 0.01 0.01 0.02 0.01 0.01 0.01 0.01
MSLP
1017.20 1017.58 1017.85 1018.06 1018.25 1018.44 1018.67 1018.94 1019.25 1019.57 1019.87 1020.14 1020.36 1020.52 1020.61 1020.65 1020.65 1020.61 1020.54 1020.45 1020.33 1020.22 1020.12 1020.06 1020.05 1020.12 1020.28 1020.51 1020.81 1021.15 1021.49 1021.82 1022.10 1022.33 1022.51 1022.64 1022.74 1022.82 1022.88 1022.92 1022.93 1022.90 1022.84
1016.83 1017.21 1017.51 1017.77 1018.03 1018.30 1018.62 1018.97 1019.35 1019.74 1020.10 1020.41 1020.67 1020.85 1020.98 1021.04 1021.07 1021.05 1021.00 1020.93 1020.84 1020.74 1020.64 1020.58 1020.58 1020.64 1020.78 1020.99 1021.26 1021.57 1021.88 1022.18 1022.44 1022.65 1022.81 1022.94 1023.03 1023.11 1023.16 1023.20 1023.21 1023.19 1023.13
1016.45 1016.83 1017.16 1017.47 1017.79 1018.15 1018.55 1018.99 1019.45 1019.90 1020.32 1020.68 1020.97 1021.20 1021.35 1021.46 1021.51 1021.53 1021.51 1021.46 1021.39 1021.31 1021.23 1021.17 1021.16 1021.21 1021.33 1021.51 1021.75 1022.01 1022.28 1022.53 1022.74 1022.91 1023.04 1023.14 1023.21 1023.27 1023.32 1023.35 1023.36 1023.34 1023.29
1016.16 1016.53 1016.88 1017.24 1017.63 1018.06 1018.53 1019.04 1019.56 1020.06 1020.52 1020.92 1021.25 1021.51 1021.71 1021.85 1021.95 1022.00 1022.02 1022.01 1021.96 1021.90 1021.84 1021.79 1021.78 1021.82 1021.91 1022.07 1022.26 1022.47 1022.68 1022.87 1023.02 1023.13 1023.22 1023.27 1023.31 1023.35 1023.38 1023.40 1023.40 1023.37 1023.31
1016.04 1016.39 1016.75 1017.14 1017.57 1018.05 1018.57 1019.13 1019.68 1020.21 1020.69 1021.12 1021.48 1021.78 1022.01 1022.20 1022.34 1022.44 1022.50 1022.52 1022.51 1022.48 1022.44 1022.40 1022.40 1022.43 1022.51 1022.63 1022.78 1022.94 1023.09 1023.22 1023.30 1023.35 1023.38 1023.38 1023.38 1023.38 1023.38 1023.38 1023.36 1023.32 1023.25
1016.09 1016.43 1016.79 1017.19 1017.64 1018.14 1018.68 1019.24 1019.79 1020.32 1020.80 1021.24 1021.62 1021.94 1022.22 1022.45 1022.65 1022.80 1022.91 1022.98 1023.01 1023.01 1022.99 1022.98 1022.99 1023.02 1023.10 1023.20 1023.31 1023.43 1023.52 1023.58 1023.60 1023.59 1023.55 1023.50 1023.45 1023.41 1023.37 1023.34 1023.30 1023.23 1023.14
1016.30 1016.62 1016.98 1017.38 1017.82 1018.31 1018.83 1019.36 1019.88 1020.37 1020.83 1021.25 1021.63 1021.98 1022.30 1022.58 1022.83 1023.05 1023.21 1023.33 1023.41 1023.45 1023.47 1023.49 1023.52 1023.58 1023.65 1023.74 1023.83 1023.91 1023.96 1023.96 1023.92 1023.85 1023.75 1023.65 1023.55 1023.47 1023.40 1023.33 1023.26 1023.17 1023.05
1016.59 1016.90 1017.25 1017.63 1018.06 1018.51 1018.98 1019.45 1019.91 1020.35 1020.76 1021.16 1021.53 1021.89 1022.24 1022.58 1022.88 1023.16 1023.39 1023.57 1023.70 1023.80 1023.87 1023.93 1023.99 1024.07 1024.15 1024.24 1024.32 1024.37 1024.37 1024.33 1024.25 1024.12 1023.98 1023.83 1023.70 1023.58 1023.48 1023.39 1023.29 1023.17 1023.03
1016.88 1017.19 1017.53 1017.89 1018.28 1018.69 1019.10 1019.50 1019.88 1020.25 1020.61 1020.96 1021.32 1021.69 1022.07 1022.44 1022.80 1023.13 1023.42 1023.67 1023.87 1024.02 1024.15 1024.26 1024.37 1024.47 1024.58 1024.67 1024.74 1024.77 1024.75 1024.67 1024.55 1024.39 1024.22 1024.04 1023.88 1023.74 1023.62 1023.51 1023.39 1023.26 1023.09
1017.09 1017.41 1017.75 1018.10 1018.46 1018.82 1019.16 1019.49 1019.80 1020.10 1020.40 1020.71 1021.05 1021.41 1021.80 1022.21 1022.61 1022.99 1023.35 1023.65 1023.91 1024.13 1024.32 1024.49 1024.64 1024.78 1024.91 1025.01 1025.07 1025.09 1025.05 1024.95 1024.80 1024.62 1024.43 1024.24 1024.08 1023.93 1023.81 1023.69 1023.57 1023.43 1023.25
1017.18 1017.52 1017.87 1018.22 1018.56 1018.88 1019.17 1019.44 1019.69 1019.93 1020.18 1020.46 1020.77 1021.13 1021.52 1021.94 1022.37 1022.79 1023.18 1023.54 1023.86 1024.14 1024.39 1024.61 1024.81 1024.99 1025.14 1025.25 1025.31 1025.31 1025.25 1025.14 1024.98 1024.79 1024.60 1024.42 1024.27 1024.13 1024.02 1023.91 1023.79 1023.64 1023.46
1017.13 1017.51 1017.88 1018.23 1018.57 1018.87 1019.14 1019.38 1019.59 1019.79 1020.01 1020.26 1020.55 1020.88 1021.27 1021.68 1022.12 1022.56 1022.98 1023.38 1023.74 1024.08 1024.38 1024.65 1024.90 1025.11 1025.27 1025.39 1025.45 1025.44 1025.37 1025.24 1025.08 1024.90 1024.72 1024.56 1024.43 1024.32 1024.22 1024.13 1024.02 1023.87 1023.68
1016.96 1017.37 1017.78 1018.16 1018.51 1018.82 1019.09 1019.32 1019.52 1019.72 1019.92 1020.15 1020.42 1020.73 1021.09 1021.49 1021.92 1022.35 1022.78 1023.20 1023.59 1023.97 1024.31 1024.63 1024.91 1025.15 1025.34 1025.46 1025.50 1025.48 1025.40 1025.27 1025.11 1024.94 1024.78 1024.65 1024.55 1024.47 1024.40 1024.32 1024.21 1024.07 1023.88
1016.70 1017.15 1017.59 1018.00 1018.38 1018.72 1019.02 1019.28 1019.50 1019.71 1019.92 1020.15 1020.40 1020.69 1021.02 1021.39 1021.78 1022.19 1022.61 1023.03 1023.44 1023.84 1024.23 1024.58 1024.90 1025.16 1025.35 1025.47 1025.51 1025.48 1025.38 1025.25 1025.09 1024.94 1024.80 1024.70 1024.63 1024.57 1024.52 1024.46 1024.35 1024.20 1024.00
1016.37 1016.85 1017.33 1017.78 1018.20 1018.59 1018.93 1019.23 1019.51 1019.75 1019.99 1020.23 1020.48 1020.75 1021.05 1021.37 1021.72 1022.10 1022.49 1022.90 1023.32 1023.75 1024.15 1024.54 1024.88 1025.15 1025.35 1025.47 1025.50 1025.46 1025.35 1025.21 1025.06 1024.92 1024.80 1024.72 1024.67 1024.63 1024.59 1024.52 1024.41 1024.25 1024.03
1016.00 1016.50 1017.00 1017.49 1017.95 1018.39 1018.79 1019.16 1019.50 1019.80 1020.07 1020.34 1020.59 1020.86 1021.12 1021.41 1021.72 1022.06 1022.43 1022.83 1023.25 1023.68 1024.11 1024.52 1024.88 1025.17 1025.37 1025.49 1025.51 1025.45 1025.34 1025.19 1025.03 1024.89 1024.79 1024.72 1024.67 1024.64 1024.59 1024.51 1024.38 1024.19 1023.95
1015.58 1016.09 1016.60 1017.11 1017.62 1018.11 1018.58 1019.01 1019.42 1019.78 1020.11 1020.41 1020.69 1020.95 1021.20 1021.46 1021.74 1022.06 1022.40 1022.79 1023.22 1023.66 1024.11 1024.53 1024.91 1025.21 1025.42 1025.53 1025.54 1025.47 1025.34 1025.18 1025.02 1024.88 1024.76 1024.69 1024.63 1024.58 1024.52 1024.41 1024.25 1024.04 1023.76
1015.12 1015.62 1016.13 1016.66 1017.19 1017.73 1018.25 1018.75 1019.23 1019.66 1020.05 1020.39 1020.69 1020.97 1021.22 1021.48 1021.75 1022.05 1022.39 1022.78 1023.21 1023.67 1024.13 1024.57 1024.96 1025.27 1025.48 1025.58 1025.59 1025.50 1025.36 1025.19 1025.01 1024.85 1024.72 1024.62 1024.54 1024.46 1024.36 1024.22 1024.03 1023.78 1023.48
1014.63 1015.10 1015.60 1016.13 1016.68 1017.25 1017.82 1018.37 1018.90 1019.39 1019.83 1020.23 1020.57 1020.87 1021.15 1021.41 1021.69 1022.00 1022.35 1022.75 1023.19 1023.67 1024.15 1024.60 1025.00 1025.31 1025.52 1025.62 1025.61 1025.52 1025.36 1025.17 1024.97 1024.79 1024.64 1024.51 1024.39 1024.27 1024.13 1023.95 1023.72 1023.44 1023.12
1014.12 1014.55 1015.04 1015.56 1016.12 1016.70 1017.30 1017.89 1018.46 1018.99 1019.48 1019.92 1020.30 1020.64 1020.95 1021.25 1021.56 1021.89 1022.26 1022.68 1023.15 1023.63 1024.12 1024.58 1024.98 1025.29 1025.50 1025.59 1025.58 1025.47 1025.31 1025.10 1024.89 1024.68 1024.50 1024.33 1024.18 1024.01 1023.83 1023.61 1023.34 1023.04 1022.70
1013.61 1014.02 1014.48 1014.99 1015.54 1016.13 1016.73 1017.34 1017.94 1018.50 1019.02 1019.50 1019.92 1020.31 1020.66 1021.00 1021.34 1021.71 1022.11 1022.56 1023.03 1023.53 1024.02 1024.48 1024.87 1025.17 1025.37 1025.46 1025.44 1025.33 1025.16 1024.95 1024.72 1024.50 1024.29 1024.09 1023.90 1023.69 1023.47 1023.21 1022.91 1022.59 1022.24
1013.15 1013.53 1013.97 1014.47 1015.01 1015.59 1016.19 1016.79 1017.39 1017.97 1018.51 1019.01 1019.47 1019.90 1020.29 1020.68 1021.07 1021.47 1021.91 1022.37 1022.85 1023.35 1023.83 1024.27 1024.64 1024.93 1025.12 1025.20 1025.18 1025.07 1024.91 1024.70 1024.48 1024.25 1024.02 1023.79 1023.57 1023.33 1023.07 1022.78 1022.46 1022.12 1021.77
1012.75 1013.12 1013.55 1014.03 1014.56 1015.12 1015.71 1016.30 1016.88 1017.45 1018.00 1018.52 1019.00 1019.46 1019.90 1020.33 1020.75 1021.19 1021.65 1022.12 1022.60 1023.08 1023.53 1023.95 1024.29 1024.56 1024.73 1024.80 1024.79 1024.70 1024.55 1024.36 1024.15 1023.92 1023.69 1023.46 1023.21 1022.95 1022.66 1022.35 1022.01 1021.66 1021.30
1012.45 1012.81 1013.23 1013.71 1014.22 1014.76 1015.31 1015.88 1016.44 1017.00 1017.54 1018.06 1018.57 1019.05 1019.52 1019.98 1020.44 1020.90 1021.36 1021.83 1022.29 1022.74 1023.15 1023.53 1023.84 1024.07 1024.23 1024.31 1024.30 1024.23 1024.11 1023.95 1023.76 1023.56 1023.34 1023.10 1022.84 1022.57 1022.26 1021.93 1021.58 1021.22 1020.85
1012.22 1012.58 1013.00 1013.46 1013.96 1014.47 1015.00 1015.53 1016.07 1016.60 1017.13 1017.66 1018.18 1018.68 1019.18 1019.67 1020.15 1020.62 1021.08 1021.52 1021.95 1022.36 1022.73 1023.05 1023.32 1023.53 1023.67 1023.75 1023.76 1023.72 1023.63 1023.51 1023.35 1023.17 1022.97 1022.74 1022.48 1022.20 1021.88 1021.54 1021.17 1020.79 1020.41
1012.03 1012.39 1012.80 1013.25 1013.73 1014.22 1014.71 1015.22 1015.73 1016.25 1016.78 1017.31 1017.83 1018.36 1018.88 1019.39 1019.88 1020.35 1020.80 1021.22 1021.61 1021.97 1022.29 1022.57 1022.79 1022.98 1023.10 1023.18 1023.21 1023.20 1023.15 1023.06 1022.93 1022.78 1022.59 1022.37 1022.12 1021.83 1021.51 1021.15 1020.77 1020.38 1019.98
Thickness
5656 5656 5657 5659 5659 5659 5660 5660 5660 5660 5660 5661 5661 5660 5659 5658 5657 5657 5656 5656 5656 5656 5655 5654 5652 5651 5649 5647 5646 5644 5643 5641 5640 5639 5638 5637 5636 5635 5634 5634 5633 5632 5632
5649 5649 5650 5651 5652 5652 5653 5653 5653 5653 5653 5654 5653 5653 5652 5651 5650 5650 5649 5649 5649 5649 5648 5647 5646 5644 5642 5641 5639 5637 5635 5634 5632 5631 5630 5629 5628 5627 5626 5626 5625 5625 5624
5642 5642 5642 5643 5644 5644 5645 5645 5646 5646 5645 5645 5645 5645 5645 5644 5643 5642 5642 5642 5641 5641 5640 5639 5638 5637 5635 5633 5632 5630 5627 5626 5624 5623 5622 5621 5620 5619 5618 5618 5617 5617 5616
5634 5634 5635 5635 5636 5636 5636 5637 5637 5637 5636 5636 5636 5637 5637 5636 5635 5635 5634 5634 5633 5633 5632 5631 5630 5629 5627 5625 5624 5622 5620 5618 5616 5615 5614 5613 5612 5611 5610 5609 5609 5608 5608
5625 5625 5626 5626 5627 5627 5627 5628 5628 5628 5627 5627 5627 5627 5628 5628 5627 5627 5626 5625 5625 5624 5623 5622 5621 5619 5618 5617 5615 5613 5612 5610 5608 5607 5605 5604 5603 5602 5601 5601 5600 5600 5599
5616 5617 5617 5617 5618 5618 5618 5619 5619 5620 5618 5619 5619 5617 5617 5617 5618 5618 5617 5617 5616 5615 5614 5613 5612 5610 5609 5607 5606 5604 5603 5601 5599 5598 5597 5596 5594 5593 5593 5592 5591 5591 5590
5607 5608 5608 5608 5609 5610 5611 5611 5611 5610 5608 5608 5608 5606 5605 5606 5608 5608 5608 5607 5607 5606 5605 5604 5603 5601 5599 5598 5596 5595 5593 5592 5590 5589 5588 5587 5585 5584 5584 5583 5582 5581 5581
5598 5600 5600 5600 5601 5601 5602 5603 5604 5602 5601 5600 5599 5597 5595 5594 5596 5598 5598 5598 5597 5597 5596 5594 5593 5592 5590 5588 5586 5585 5583 5582 5581 5580 5579 5577 5576 5575 5574 5573 5572 5571 5571
5590 5591 5592 5592 5592 5593 5593 5595 5596 5596 5593 5592 5593 5592 5589 5588 5586 5586 5587 5588 5588 5587 5586 5585 5584 5582 5580 5578 5576 5575 5573 5572 5571 5570 5569 5568 5567 5566 5564 5563 5562 5561 5560
5581 5582 5584 5585 5585 5586 5586 5587 5588 5589 5588 5586 5584 5584 5585 5584 5580 5577 5576 5577 5577 5577 5577 5576 5574 5572 5570 5568 5567 5565 5563 5561 5560 5559 5558 5557 5557 5555 5554 5553 5552 5550 5549
5573 5575 5577 5577 5578 5579 5579 5580 5580 5580 5580 5580 5578 5576 5575 5573 5573 5572 5568 5566 5566 5567 5567 5566 5564 5562 5560 5558 5557 5555 5553 5551 5550 5549 5547 5546 5546 5544 5543 5541 5540 5539 5538
5566 5568 5570 5570 5570 5571 5571 5572 5573 5572 5572 5572 5571 5571 5570 5567 5565 5564 5561 5557 5556 5556 5556 5555 5554 5552 5550 5548 5546 5544 5542 5540 5539 5537 5536 5535 5534 5532 5531 5530 5528 5527 5526
5558 5561 5562 5562 5562 5563 5563 5563 5564 5564 5564 5563 5563 5562 5562 5562 5560 5557 5553 5548 5546 5544 5544 5544 5544 5542 5540 5538 5536 5534 5531 5529 5527 5526 5525 5524 5522 5520 5519 5517 5516 5515 5513
5553 5554 5554 5554 5554 5554 5554 5555 5555 5555 5555 5554 5554 5553 5552 5552 5551 5549 5545 5540 5535 5532 5532 5532 5532 5531 5529 5527 5525 5523 5520 5518 5516 5514 5513 5512 5510 5508 5506 5504 5503 5501 5500
5546 5547 5546 5546 5547 5546 5546 5546 5546 5546 5545 5545 5544 5543 5542 5541 5540 5538 5536 5534 5529 5524 5521 5520 5520 5520 5518 5515 5513 5511 5509 5507 5505 5503 5501 5499 5497 5495 5494 5492 5490 5488 5486
5539 5540 5540 5540 5539 5539 5538 5538 5538 5537 5536 5535 5534 5532 5531 5530 5528 5526 5525 5523 5521 5517 5512 5510 5509 5508 5506 5503 5501 5498 5497 5495 5493 5491 5489 5487 5485 5483 5481 5479 5477 5474 5472
5532 5532 5532 5532 5532 5531 5531 5530 5529 5528 5527 5526 5524 5522 5520 5519 5517 5515 5513 5511 5508 5506 5502 5499 5497 5496 5493 5491 5488 5486 5485 5483 5480 5478 5476 5474 5472 5470 5467 5465 5463 5460 5458
5524 5524 5524 5524 5524 5524 5522 5521 5520 5519 5518 5516 5514 5512 5510 5508 5506 5504 5501 5500 5498 5495 5491 5487 5484 5482 5480 5478 5476 5474 5472 5470 5468 5466 5463 5461 5459 5457 5454 5451 5449 5446 5443
5517 5516 5515 5515 5516 5516 5514 5513 5512 5510 5508 5506 5504 5502 5501 5498 5495 5493 5491 5489 5486 5484 5480 5476 5473 5470 5467 5465 5463 5461 5459 5457 5455 5452 5450 5448 5445 5443 5440 5437 5434 5431 5429
5508 5508 5507 5507 5507 5507 5505 5504 5502 5500 5498 5496 5494 5492 5491 5488 5486 5483 5480 5477 5474 5470 5467 5464 5461 5457 5454 5452 5450 5448 5446 5444 5441 5439 5436 5433 5431 5428 5425 5423 5420 5417 5414
5499 5499 5499 5498 5497 5496 5495 5494 5492 5490 5487 5484 5482 5481 5480 5478 5476 5474 5471 5467 5463 5459 5455 5451 5448 5445 5442 5439 5436 5434 5432 5430 5428 5425 5423 5420 5417 5415 5412 5409 5406 5403 5400
5488 5488 5489 5488 5487 5486 5485 5484 5482 5479 5476 5474 5471 5469 5468 5466 5465 5463 5461 5458 5453 5449 5444 5441 5437 5434 5431 5428 5425 5422 5418 5416 5415 5413 5409 5408 5404 5402 5399 5396 5393 5389 5386
5478 5478 5477 5476 5475 5474 5474 5472 5470 5468 5466 5463 5460 5458 5456 5455 5453 5450 5448 5446 5442 5439 5437 5433 5428 5425 5421 5418 5413 5409 5406 5404 5403 5399 5394 5396 5392 5390 5387 5383 5379 5375 5372
5468 5467 5466 5465 5464 5463 5463 5461 5460 5457 5455 5453 5450 5447 5445 5442 5440 5438 5435 5432 5429 5427 5425 5422 5419 5415 5411 5407 5403 5400 5396 5393 5391 5386 5381 5380 5379 5376 5375 5370 5365 5361 5357
5457 5456 5455 5454 5453 5452 5452 5450 5448 5445 5443 5441 5438 5436 5433 5431 5429 5427 5423 5420 5417 5414 5412 5410 5407 5404 5400 5396 5391 5386 5382 5378 5378 5375 5368 5364 5364 5362 5361 5358 5353 5348 5344
5446 5445 5443 5442 5441 5440 5440 5439 5437 5434 5431 5428 5426 5424 5422 5420 5417 5414 5411 5408 5405 5403 5400 5397 5394 5391 5387 5384 5379 5375 5370 5365 5362 5361 5358 5351 5348 5344 5346 5347 5342 5336 5332